[[{"header":{"parameterUnit":"m.s-1","parameterCategory":1,"la1":30.2991,"la2":30.254,"lo1":-89.0895,"lo2":-89.0444,"dy":0.0017,"dx":0.0017,"nx":28,"ny":28,"refTime":"2024-10-19T21:00:00:Z","depth":0,"parameterNumber":2,"parameterNumberName":"U-component_of_WINDS"},"data":[0,0,0,0,0,0,0,0,0,0,0,0,0,0,0,0,0,0,0,0,0,0,0,0,0,0,0,0,0,0,0,0,0,0,0,0,0,0,0,0,0,0,0,0,0,0,0,0,0,0,0,0,0,0,0,0,0,0,-2.8317,-2.8317,0,-2.8317,-2.8317,-2.8317,-2.8189,-2.8185,-2.8182,-2.8179,-2.8181,-2.8184,-2.8187,0,0,0,0,0,0,0,0,0,0,0,0,0,-2.821,-2.8213,-2.8317,-2.8317,-2.8317,-2.8317,-2.8317,-2.8317,-2.8189,-2.8185,-2.8181,-2.8177,-2.818,-2.8184,-2.8188,0,0,0,0,0,0,0,0,0,0,0,0,0,-2.8238,-2.8213,-2.8317,-2.8254,-2.8248,-2.8317,-2.8317,-2.8317,-2.819,-2.8185,-2.818,-2.8175,-2.8179,-2.8184,-2.8188,-2.8319,0,0,-2.8203,-2.8205,0,0,0,0,0,0,0,0,-2.8236,-2.8242,-2.8263,-2.8258,-2.8252,-2.8247,-2.8279,-2.8318,-2.8191,-2.8212,-2.8179,-2.8173,-2.8208,-2.821,-2.8221,-2.8319,-2.8319,-2.8203,-2.8206,-2.8208,-2.821,0,0,0,0,0,0,0,-2.8235,-2.8241,-2.8317,-2.8263,-2.8257,-2.8226,-2.8224,-2.8286,-2.8238,-2.821,-2.8201,-2.8202,-2.8203,-2.8216,-2.822,-2.8319,-2.8203,-2.8207,-2.821,-2.8212,-2.8524,-2.8529,0,0,0,0,0,0,-2.8241,-2.824,-2.8317,-2.8317,-2.8231,-2.8232,-2.823,-2.8254,-2.8237,-2.823,-2.8207,-2.8196,-2.8211,-2.8214,-2.8219,-2.8372,-2.8208,-2.8213,-2.8215,-2.8519,-2.8526,-2.8531,0,0,0,0,0,0,-2.8239,-2.8249,-2.8317,-2.8276,-2.8282,-2.8239,-2.8267,-2.8257,-2.8269,-2.8234,-2.8226,-2.8229,-2.8207,-2.8213,-2.8295,-2.837,-2.8215,-2.8219,-2.8513,-2.8521,-2.8528,-2.8678,0,0,0,0,0,0,-2.8237,-2.8249,-2.8298,-2.8278,-2.8285,-2.8393,-2.8272,-2.826,-2.8278,-2.8264,-2.8253,-2.8246,-2.8203,-2.8288,-2.83,-2.8374,-2.8223,-2.8506,-2.8516,-2.8526,-2.8666,-2.869,-2.8711,0,0,0,0,0,-2.8233,-2.8341,-2.8301,-2.8311,-2.8345,-2.8397,-2.8401,-2.8349,-2.8284,-2.8334,-2.8311,-2.8246,-2.8359,-2.8298,-2.8309,-2.8387,-2.8501,-2.8513,-2.8525,-2.8656,-2.8686,-2.871,0,0,0,0,0,0,-2.8373,-2.8337,-2.8293,-2.8397,-2.8401,-2.8376,-2.8436,-2.8382,-2.8405,-2.8392,-2.8326,-2.8325,-2.8418,-2.841,-2.8342,-2.8512,-2.8419,-2.8434,-2.8515,-2.8542,-2.8564,-2.8565,-2.8227,0,0,0,0,0,-2.8415,-2.8459,-2.8426,-2.8522,-2.8526,-2.8481,-2.8502,-2.8461,-2.8463,-2.8464,-2.8447,-2.8452,-2.8488,-2.8514,-2.8546,-2.8663,-2.866,-2.8722,-2.8744,-2.8763,-2.8777,-2.884,-2.8867,-2.8571,-2.8571,-2.8571,0,0,-2.8504,-2.849,-2.8523,-2.8549,-2.8547,-2.8596,-2.8483,-2.8539,-2.8575,-2.8472,-2.855,-2.8537,-2.8538,-2.8639,-2.8682,-2.8635,-2.8858,-2.8778,-2.8793,-2.8798,-2.8855,-2.8883,-2.8908,-2.858,-2.8578,-2.8577,0,0,-2.8691,-2.8685,-2.8764,-2.8764,-2.8762,-2.8731,-2.875,-2.8732,-2.872,-2.8796,-2.872,-2.8761,-2.8825,-2.8829,-2.884,-2.9027,-2.8969,-2.9039,-2.9157,-2.9218,-2.9242,-2.9262,-2.9331,-2.9356,-2.9053,-2.9053,-2.9054,0,-2.8803,-2.8872,-2.8811,-2.8872,-2.8887,-2.8794,-2.8874,-2.8877,-2.8887,-2.8899,-2.8845,-2.8923,-2.8917,-2.9018,-2.9064,-2.9075,-2.9095,-2.9042,-2.9243,-2.9263,-2.9281,-2.9346,-2.9371,-2.9062,-2.9061,-2.906,-2.9059,0,-2.901,-2.9059,-2.9122,-2.9133,-2.9154,-2.9224,-2.9175,-2.9203,-2.916,-2.9135,-2.9214,-2.9203,-2.9231,-2.9251,-2.921,-2.9346,-2.9317,-2.9254,-2.916,-2.9319,-2.9379,-2.9403,-2.9075,-2.9071,-2.9069,-2.9067,0,0,-2.9288,-2.9262,-2.9287,-2.929,-2.9281,-2.9318,-2.9383,-2.941,-2.9436,-2.9445,-2.9499,-2.9555,-2.9496,-2.9508,-2.9466,-2.952,-2.9671,-2.945,-2.9449,-2.9493,-2.9822,-2.9872,-2.9901,-2.963,-2.9635,-2.9638,-2.9822,0,-2.947,-2.9581,-2.9528,-2.9646,-2.9691,-2.9603,-2.966,-2.9661,-2.9639,-2.9674,-2.9649,-2.9691,-2.9609,-2.9616,-2.9665,-2.9642,-2.9736,-2.9627,-2.9683,-2.9685,-2.9688,-2.9932,-2.9985,-3.0159,-2.9845,-2.9849,-2.9852,0,-2.97,-2.9717,-2.9839,-2.9821,-2.9838,-2.9891,-2.991,-2.9944,-2.9943,-2.9923,-2.9936,-2.9881,-2.9945,-2.9849,-2.9937,-2.9864,-2.9883,-2.9875,-2.988,-2.9886,-2.9781,-2.9947,-3.0213,-3.0241,-2.9888,-2.9885,-2.9882,0,-2.9893,-2.9947,-3.0026,-3.0032,-3.0012,-3.0051,-3.0045,-3.0039,-3.0058,-3.0075,-3.0087,-3.0111,-3.0126,-3.0146,-3.01,-3.0034,-3.0195,-3.0094,-3.0181,-3.0183,-3.0222,-3.0221,-3.0498,-3.023,-3.0229,-3.0229,-3.0228,0,-3.0104,-3.0183,-3.0113,-3.0163,-3.0248,-3.0186,-3.0272,-3.0256,-3.0251,-3.0297,-3.0221,-3.0266,-3.02,-3.0238,-3.0202,-3.0281,-3.0287,-3.0274,-3.0264,-3.0283,-3.0285,-3.0296,-3.0284,-3.0236,-3.0234,-3.0233,-3.0232,0,-3.0336,-3.0292,-3.0374,-3.0348,-3.0343,-3.0407,-3.0385,-3.043,-3.0402,-3.046,-3.0471,-3.0427,-3.0468,-3.0422,-3.046,-3.0435,-3.0543,-3.0513,-3.0544,-3.0536,-3.0627,-3.062,-3.0924,-3.0961,-3.0667,-3.067,-3.0672,0,-3.0475,-3.0534,-3.0514,-3.0538,-3.0536,-3.0577,-3.0595,-3.0535,-3.0558,-3.0561,-3.0606,-3.064,-3.0665,-3.0734,-3.0706,-3.0734,-3.0707,-3.0811,-3.0711,-3.0728,-3.0711,-3.071,-3.0716,-3.0833,-3.0836,-3.0839,-3.0842,0,-3.0728,-3.0703,-3.0733,-3.0755,-3.0779,-3.0794,-3.0803,-3.0828,-3.0765,-3.0795,-3.0835,-3.0854,-3.0891,-3.0927,-3.0947,-3.0941,-3.0883,-3.0873,-3.0895,-3.0916,-3.0932,-3.0927,-3.0602,-3.0867,-3.0864,-3.0863,-3.0861,-3.086,-3.0919,-3.0967,-3.0961,-3.0996,-3.0996,-3.1006,-3.1048,-3.1024,-3.1056,-3.1082,-3.1044,-3.1095,-3.1091,-3.1112,-3.1112,-3.1152,-3.1107,-3.1139,-3.1147,-3.1157,-3.1172,-3.0923,-3.1155,-3.1154,-3.1153,-3.1153,-3.1152,0,-3.117,-3.1161,-3.1194,-3.1209,-3.1237,-3.1176,-3.1183,-3.1211,-3.1256,-3.1258,-3.1283,-3.1329,-3.1363,-3.1337,-3.1365,-3.1402,-3.1376,-3.1412,-3.141,-3.141,-3.1208,-3.1188,-3.1432,-3.1432,-3.1432,-3.1432,-3.1432,-3.1432,-3.1304,-3.1383,-3.1357,-3.1434,-3.1424,-3.1473,-3.1482,-3.1491,-3.1492,-3.1547,-3.1575,-3.1557,-3.1547,-3.1574,-3.1602,-3.1594,-3.1609,-3.1655,-3.1638,-3.1451,-3.1424,-3.1398,-3.1378,-3.1658,-3.1659,-3.1836,-3.1837,-3.1839]},{"header":{"parameterUnit":"m.s-1","parameterCategory":1,"la1":30.2991,"la2":30.254,"lo1":-89.0895,"lo2":-89.0444,"dy":0.0017,"dx":0.0017,"nx":28,"ny":28,"refTime":"2024-10-19T21:00:00:Z","depth":0,"parameterNumber":3,"parameterNumberName":"V-component_of_WINDS"},"data":[0,0,0,0,0,0,0,0,0,0,0,0,0,0,0,0,0,0,0,0,0,0,0,0,0,0,0,0,0,0,0,0,0,0,0,0,0,0,0,0,0,0,0,0,0,0,0,0,0,0,0,0,0,0,0,0,0,0,-3.226,-3.226,0,-3.2329,-3.233,-3.2331,-3.2312,-3.231,-3.2309,-3.2308,-3.2373,-3.2376,-3.2379,0,0,0,0,0,0,0,0,0,0,0,0,0,-3.2105,-3.2108,-3.2259,-3.226,-3.2261,-3.2329,-3.233,-3.2331,-3.2312,-3.231,-3.2309,-3.2307,-3.2372,-3.2376,-3.238,0,0,0,0,0,0,0,0,0,0,0,0,0,-3.2173,-3.2109,-3.2259,-3.226,-3.2261,-3.2329,-3.233,-3.2331,-3.2312,-3.231,-3.2308,-3.2306,-3.2371,-3.2376,-3.238,-3.245,0,0,-3.2394,-3.2396,0,0,0,0,0,0,0,0,-3.2169,-3.2178,-3.2259,-3.226,-3.2261,-3.231,-3.2299,-3.2371,-3.2313,-3.2293,-3.2308,-3.2305,-3.2353,-3.2359,-3.2377,-3.2453,-3.2456,-3.2394,-3.2397,-3.2399,-3.24,0,0,0,0,0,0,0,-3.2164,-3.2175,-3.2287,-3.226,-3.2262,-3.2255,-3.2263,-3.2313,-3.2334,-3.2294,-3.2293,-3.2302,-3.2354,-3.2372,-3.2378,-3.2456,-3.2394,-3.2398,-3.2401,-3.2403,-3.2592,-3.2594,0,0,0,0,0,0,-3.216,-3.2172,-3.2285,-3.2289,-3.2209,-3.226,-3.2268,-3.2296,-3.2333,-3.2337,-3.2304,-3.2301,-3.2366,-3.2373,-3.238,-3.2464,-3.2399,-3.2403,-3.2406,-3.259,-3.2592,-3.2595,0,0,0,0,0,0,-3.2156,-3.217,-3.2282,-3.223,-3.2244,-3.2265,-3.2296,-3.2299,-3.2317,-3.234,-3.2343,-3.2319,-3.2364,-3.2374,-3.2433,-3.2466,-3.2405,-3.241,-3.2587,-3.2591,-3.2594,-3.2631,0,0,0,0,0,0,-3.2152,-3.2169,-3.2197,-3.2231,-3.2247,-3.2335,-3.2298,-3.2301,-3.2326,-3.2323,-3.2356,-3.2359,-3.2363,-3.2426,-3.2437,-3.2471,-3.2413,-3.2584,-3.2589,-3.2593,-3.2627,-3.2636,-3.2643,0,0,0,0,0,-3.2146,-3.2203,-3.2198,-3.2212,-3.2282,-3.2337,-3.2346,-3.2351,-3.2329,-3.2356,-3.2371,-3.2358,-3.2461,-3.2432,-3.2445,-3.248,-3.2582,-3.2587,-3.2592,-3.2624,-3.2634,-3.2643,0,0,0,0,0,0,-3.2171,-3.2208,-3.2203,-3.2273,-3.2302,-3.2333,-3.2368,-3.2362,-3.2396,-3.2392,-3.2395,-3.2403,-3.2463,-3.2477,-3.2445,-3.2549,-3.2518,-3.2526,-3.2537,-3.2547,-3.2555,-3.255,-3.2417,0,0,0,0,0,-3.2185,-3.2227,-3.2257,-3.2316,-3.2331,-3.2347,-3.2371,-3.2373,-3.2402,-3.2414,-3.2433,-3.2461,-3.2499,-3.2524,-3.256,-3.2629,-3.2635,-3.266,-3.2668,-3.2674,-3.268,-3.2717,-3.2728,-3.2612,-3.2612,-3.2612,0,0,-3.2213,-3.2238,-3.2265,-3.2321,-3.2344,-3.2387,-3.2358,-3.2404,-3.2435,-3.242,-3.2478,-3.2492,-3.2523,-3.2587,-3.2616,-3.2601,-3.2714,-3.268,-3.2685,-3.2688,-3.2723,-3.2734,-3.2744,-3.2615,-3.2615,-3.2614,0,0,-3.2286,-3.231,-3.2362,-3.2386,-3.2422,-3.2432,-3.2444,-3.2477,-3.2487,-3.2545,-3.2535,-3.2571,-3.2637,-3.266,-3.268,-3.2762,-3.2751,-3.2773,-3.2814,-3.2849,-3.2858,-3.2866,-3.2895,-3.2905,-3.278,-3.278,-3.278,0,-3.2316,-3.2382,-3.2389,-3.2436,-3.2461,-3.2452,-3.2503,-3.2525,-3.257,-3.2586,-3.2569,-3.2652,-3.2672,-3.2741,-3.2761,-3.2778,-3.2791,-3.2769,-3.2857,-3.2865,-3.2873,-3.29,-3.291,-3.2782,-3.2782,-3.2782,-3.2782,0,-3.2416,-3.2462,-3.2499,-3.2545,-3.2573,-3.2622,-3.2635,-3.2663,-3.2662,-3.2674,-3.2732,-3.2756,-3.2797,-3.2814,-3.2813,-3.2883,-3.2872,-3.2856,-3.2825,-3.2886,-3.2911,-3.2922,-3.2786,-3.2785,-3.2784,-3.2784,0,0,-3.2506,-3.2556,-3.2569,-3.259,-3.2629,-3.2663,-3.2711,-3.2753,-3.2776,-3.2808,-3.2847,-3.2903,-3.2889,-3.2912,-3.2913,-3.2945,-3.3007,-3.2925,-3.2925,-3.2938,-3.3084,-3.3095,-3.3107,-3.3001,-3.3003,-3.3004,-3.3081,0,-3.2582,-3.2669,-3.2676,-3.2753,-3.2795,-3.2787,-3.2829,-3.2856,-3.2868,-3.2904,-3.2916,-3.2956,-3.2935,-3.2948,-3.2979,-3.2993,-3.3036,-3.2988,-3.3035,-3.3037,-3.3027,-3.312,-3.3132,-3.3203,-3.3091,-3.3092,-3.3094,0,-3.2682,-3.2718,-3.28,-3.2833,-3.2851,-3.2888,-3.2927,-3.2962,-3.2992,-3.2999,-3.3025,-3.3022,-3.3069,-3.3037,-3.3102,-3.3069,-3.3089,-3.3098,-3.3101,-3.3105,-3.3068,-3.3125,-3.3226,-3.3236,-3.311,-3.3108,-3.3107,0,-3.2738,-3.2807,-3.2865,-3.2883,-3.2923,-3.2949,-3.2967,-3.2996,-3.302,-3.3054,-3.3069,-3.3107,-3.3128,-3.3156,-3.3163,-3.3139,-3.3227,-3.3196,-3.3233,-3.3232,-3.3251,-3.3249,-3.3355,-3.3265,-3.3265,-3.3265,-3.3265,0,-3.2821,-3.2871,-3.2891,-3.2926,-3.2982,-3.2989,-3.3043,-3.3059,-3.3084,-3.3121,-3.3116,-3.3151,-3.3158,-3.3194,-3.3199,-3.3251,-3.326,-3.3266,-3.3266,-3.3266,-3.3265,-3.3278,-3.3273,-3.3268,-3.3267,-3.3267,-3.3266,0,-3.2893,-3.2908,-3.2971,-3.3004,-3.3014,-3.3053,-3.308,-3.3113,-3.3125,-3.3172,-3.3183,-3.3201,-3.3243,-3.3253,-3.3302,-3.3305,-3.3367,-3.3363,-3.3357,-3.3356,-3.3392,-3.3388,-3.3509,-3.3525,-3.3426,-3.3427,-3.3428,0,-3.2945,-3.2983,-3.3022,-3.3047,-3.3066,-3.3107,-3.3133,-3.3141,-3.3168,-3.3206,-3.3234,-3.3275,-3.3308,-3.3374,-3.3391,-3.3428,-3.3424,-3.3464,-3.343,-3.3428,-3.3424,-3.3421,-3.3424,-3.347,-3.3471,-3.3472,-3.3473,0,-3.3035,-3.3041,-3.3079,-3.312,-3.3151,-3.3183,-3.3214,-3.3234,-3.3247,-3.3277,-3.332,-3.3346,-3.3397,-3.3437,-3.3475,-3.3491,-3.3483,-3.3484,-3.3494,-3.3493,-3.3488,-3.349,-3.3374,-3.3481,-3.348,-3.3479,-3.3479,-3.3479,-3.3097,-3.3131,-3.3164,-3.3206,-3.3231,-3.3259,-3.3292,-3.3309,-3.3346,-3.3389,-3.3391,-3.3438,-3.3466,-3.3516,-3.3535,-3.357,-3.3558,-3.3573,-3.3576,-3.358,-3.3582,-3.3483,-3.3577,-3.3577,-3.3576,-3.3576,-3.3576,0,-3.3186,-3.3207,-3.3246,-3.329,-3.3323,-3.3316,-3.335,-3.3377,-3.3419,-3.3447,-3.3481,-3.353,-3.3569,-3.3589,-3.3627,-3.3651,-3.3649,-3.3661,-3.3659,-3.3662,-3.3592,-3.3579,-3.3662,-3.3662,-3.3662,-3.3662,-3.3662,-3.3662,-3.3236,-3.3293,-3.3303,-3.3371,-3.339,-3.3438,-3.3457,-3.3483,-3.3506,-3.3562,-3.3595,-3.3609,-3.3633,-3.3673,-3.3708,-3.3713,-3.3726,-3.374,-3.3743,-3.3676,-3.3667,-3.3659,-3.3647,-3.3743,-3.3743,-3.381,-3.3811,-3.3811]}]]